STARLINK-32327, 61641

Orbit data source: Space-Track

STARLINK-32327, 61641 is a payload satellite owned by SpaceX/Seattle (US) in LEO that was launched on Wed, 23 Oct 2024 UTC via an FALCON 9 launch vehicle from the Air Force Eastern Test Range (AFETR). Payload-class satellites include a variety of spacecraft equipped with specific instruments for various scientific and technological missions. These include communications satellites like Starlink; space stations such as the ISS; scientific satellites like the Hubble; Earth observation satellites from companies like Planet Labs, Umbra, and HawkEye 360; GPS; miniature CubeSats for education and research; and military/defense satellites.

Loading next visibility...
Identifier
61641, 2024-191W
Orbit
LEO
Last TLE update
13 hours ago
Origin
Manufacturer
SpaceX/Seattle
Mission
Operational Commercial Communications
Bus & Motor
STARLINK V2M, Unknown motor
Mass
730 kg wet, ~700 kg dry
Launch date (UTC)
2024-10-23 (9 months ago)
Launch vehicle
FALCON 9
Launch site
Air Force Eastern Test Range (AFETR)
Object type
Payload
Rocket body
Debris
Shape & HBR
Box + 2 Pan, 29 m
Radar Cross Section
36.964 m², Large (>1 m²)

Expand to show TLE details & history

TLE from 13 hours ago
0 STARLINK-32327
1 61641U 24191W   25189.76687455 -.00005404  00000-0 -18692-3 0  9992
2 61641  42.9955  91.8620 0000287 228.1170 131.9657 15.27597036 40234
Epoch: 2025-07-08T18:24Z
TLE epoch observation values (Epoch: 2025-07-08T18:24:17.961Z)
Latitude
-0.00001°
Longitude
-111.16999°
Altitude
482.905 km
Speed
7.626 km/s
True Right ascension
06h 07m 26s
True Declination
0° 00' 00"
Sunlit
Object was in daylight at epoch
Visualization orbit readout
Latitude
9.45047°
Longitude
-103.91332°
Altitude
482.212 km
Speed
7.627 km/s
Apparent Right ascension
06h 50m 47s
Apparent Declination
-14° 14' 00"
Sunlit
Object is in daylight
Visualization observer readout
Local Sidereal Time
19:10:35
Azimuth
10.978° NNE
Elevation
-63.953°
Doppler factor
1
Orbital elements
Apogee altitude
485.141 km
Perigee altitude
484.747 km
Semi-major axis
6,863.081 km
Eccentricity
0.00003
Inclination
42.9955°
RAAN
91.862°
Arg. of periapsis
228.117°
True anomaly
Unknown
Mean anomaly
131.9657°
Eccentric anomaly
Unknown
Mean motion
3.81737 °/min
Orbital period
94.31 mins
BSTAR
-0.00018692
Loading maneuver chart data...
Loading SW <> Apogee altitude chart data...
Loading historical data...
Loading historical data...
Loading historical data...
Loading historical data...
Loading historical data...
Loading historical data...
Loading historical data...

STARLINK-32327 Visibility forecast

Observer location: undefined°, undefined°

Span
Click to sort rows by Start time (UTC) header in descending order
Start Az.
Max El. time (UTC)
Max El. Az.
Max El.
End time (UTC)
End Az.
5 mins2025-07-09 21:20:09.776Z236.565° WSW2025-07-09 21:22:09.776Z161.343° S43.303°2025-07-09 21:25:09.776Z75.54° E
5 mins2025-07-09 22:59:09.776Z285.825° WNW2025-07-09 23:01:09.776Z349.147° N38.693°2025-07-09 23:04:09.776Z70.311° E
6 mins2025-07-10 00:38:09.776Z293.556° NW2025-07-10 00:40:09.776Z339.725° N42.028°2025-07-10 00:44:09.776Z97.106° ESE
5 mins2025-07-10 02:17:09.776Z265.991° W2025-07-10 02:19:09.776Z214.681° SW30.623°2025-07-10 02:22:09.776Z145.835° SSE
|